TimeMST,TemperatureF,Dew PointF,Humidity,Sea Level PressureIn,VisibilityMPH,Wind Direction,Wind SpeedMPH,Gust SpeedMPH,PrecipitationIn,Events,Conditions,WindDirDegrees,DateUTC
12:15 AM,3.2,1.4,92,30.29,10.0,NE,6.9,-,N/A,,Clear,40,2013-01-22 07:15:00
12:35 AM,5.0,3.2,92,30.29,10.0,NNE,3.5,-,N/A,,Clear,20,2013-01-22 07:35:00
12:55 AM,1.4,1.4,100,30.29,10.0,North,6.9,-,N/A,,Clear,360,2013-01-22 07:55:00
1:15 AM,-2.2,-4.0,92,30.29,10.0,North,11.5,-,N/A,,Clear,10,2013-01-22 08:15:00
1:55 AM,-0.4,-0.4,100,30.30,10.0,NNE,5.8,-,N/A,,Clear,20,2013-01-22 08:55:00
2:15 AM,-0.4,-2.2,92,30.31,10.0,NE,4.6,-,N/A,,Clear,40,2013-01-22 09:15:00
2:35 AM,-0.4,-0.4,100,30.32,10.0,Calm,Calm,-,N/A,,Clear,0,2013-01-22 09:35:00
2:55 AM,1.4,-0.4,92,30.32,10.0,North,5.8,-,N/A,,Clear,360,2013-01-22 09:55:00
3:15 AM,-2.2,-5.8,85,30.32,10.0,North,5.8,-,N/A,,Clear,10,2013-01-22 10:15:00
3:55 AM,-5.8,-7.6,92,30.31,10.0,North,8.1,-,N/A,,Clear,10,2013-01-22 10:55:00
4:15 AM,-7.6,-9.4,92,30.30,10.0,North,9.2,-,N/A,,Clear,360,2013-01-22 11:15:00
4:35 AM,-7.6,-9.4,92,30.30,10.0,North,6.9,-,N/A,,Clear,10,2013-01-22 11:35:00
4:55 AM,-5.8,-7.6,92,30.30,10.0,NE,4.6,-,N/A,,Clear,40,2013-01-22 11:55:00
5:15 AM,-7.6,-7.6,100,30.30,10.0,NNE,3.5,-,N/A,,Clear,20,2013-01-22 12:15:00
5:35 AM,-5.8,-7.6,92,30.30,10.0,NNE,5.8,-,N/A,,Clear,20,2013-01-22 12:35:00
5:55 AM,-7.6,-9.4,92,30.31,10.0,NNE,4.6,-,N/A,,Clear,20,2013-01-22 12:55:00
6:15 AM,-5.8,-7.6,92,30.31,10.0,NNE,8.1,-,N/A,,Clear,30,2013-01-22 13:15:00
6:36 AM,-5.8,-7.6,92,30.31,10.0,North,10.4,-,N/A,,Clear,10,2013-01-22 13:36:00
6:51 AM,-4.0,-5.8,92,30.31,10.0,Calm,Calm,-,N/A,,Clear,0,2013-01-22 13:51:00
7:53 AM,-7.6,-11.2,84,30.32,10.0,North,4.6,-,N/A,,Clear,360,2013-01-22 14:53:00
8:51 AM,-5.8,-7.6,92,30.34,10.0,North,4.6,-,N/A,,Clear,10,2013-01-22 15:51:00
9:58 AM,-0.4,-2.2,92,30.35,10.0,Calm,Calm,-,N/A,,Clear,0,2013-01-22 16:58:00
10:51 AM,6.8,1.4,79,30.36,10.0,Calm,Calm,-,N/A,,Clear,0,2013-01-22 17:51:00
11:51 AM,8.6,3.2,79,30.35,10.0,Calm,Calm,-,N/A,,Clear,0,2013-01-22 18:51:00
12:52 PM,14.0,6.8,73,30.32,10.0,Calm,Calm,-,N/A,,Clear,0,2013-01-22 19:52:00
1:56 PM,15.8,8.6,73,30.32,10.0,Calm,Calm,-,N/A,,Clear,0,2013-01-22 20:56:00
2:51 PM,19.4,10.4,68,30.30,10.0,Calm,Calm,-,N/A,,Clear,0,2013-01-22 21:51:00
3:51 PM,15.8,10.4,79,30.29,10.0,SE,3.5,-,N/A,,Clear,140,2013-01-22 22:51:00
4:51 PM,12.2,8.6,85,30.28,10.0,Calm,Calm,-,N/A,,Clear,0,2013-01-22 23:51:00
5:51 PM,8.6,6.8,92,30.28,10.0,Calm,Calm,-,N/A,,Clear,0,2013-01-23 00:51:00
6:51 PM,5.0,3.2,92,30.28,10.0,Calm,Calm,-,N/A,,Clear,0,2013-01-23 01:51:00
7:54 PM,8.6,6.8,92,30.28,10.0,NNE,6.9,-,N/A,,Clear,30,2013-01-23 02:54:00
8:51 PM,-2.2,-2.2,100,30.29,10.0,North,10.4,-,N/A,,Clear,360,2013-01-23 03:51:00
8:55 PM,-0.4,-2.2,92,30.29,10.0,North,9.2,-,N/A,,Clear,10,2013-01-23 03:55:00
9:15 PM,-0.4,-2.2,92,30.30,10.0,North,9.2,-,N/A,,Clear,10,2013-01-23 04:15:00
9:35 PM,-0.4,-0.4,100,30.30,10.0,NNE,5.8,-,N/A,,Clear,30,2013-01-23 04:35:00
10:15 PM,-0.4,-2.2,92,30.30,10.0,North,5.8,-,N/A,,Clear,10,2013-01-23 05:15:00
10:35 PM,-2.2,-4.0,92,30.30,10.0,NNE,4.6,-,N/A,,Clear,20,2013-01-23 05:35:00
10:55 PM,-2.2,-5.8,85,30.30,10.0,NNE,4.6,-,N/A,,Clear,20,2013-01-23 05:55:00
11:15 PM,-0.4,-2.2,92,30.30,10.0,North,9.2,-,N/A,,Clear,10,2013-01-23 06:15:00
11:35 PM,-0.4,-2.2,92,30.31,10.0,North,10.4,-,N/A,,Clear,10,2013-01-23 06:35:00
11:56 PM,-0.4,-2.2,92,30.30,10.0,North,10.4,-,N/A,,Clear,10,2013-01-23 06:56:00